ELYSIUM STAR 2 & LFF (43760 NORAD) Tracking and Keplerian Element Data

This shows tracking and keplerian element data for the satellite.

Feedback or suggestion? Click here.




ElementValue
Catalog43760
NameELYSIUM STAR 2 & LFF
Epoch Orbit32128
Epoch Day286.88101136
Epoch Year2024
RAAN356.5081
Inclination97.4985
Eccentricity0.0005927
Argument of Perigee219.4702
Mean Anonmoly140.6117
Mean Motion15.49128975
Decay Rate0.00188611
L11 43760U 18099C 24286.88101136 .00188611 00000+0 33927-2 0 9997
L22 43760 97.4985 356.5081 0005927 219.4702 140.6117 15.49128975321287



Live tracking and technical data element details for ELYSIUM STAR 2 & LFF (NORAD 43760). ELYSIUM STAR 2 & LFF can be tracked NOW for your location showing map with azimuth and elevation plus other details from your city location.







IsCatalogInMostPopularTable: catalog: 43760, numindb: 415
Update: records affected: 1



GetName: 43760 ELYSIUM STAR 2 & LFF

Hit Count: updated at: Thu, 21 May 2026 10:58:39 GMT